Terug naar catalogus

STARLINK-5651

ActiefCommunicatieVLEO
NORAD 55357·PAYLOAD·🇺🇸 United States

Gelanceerd Jan 26, 2023 vanaf Cape Canaveral Space Force Station

Loading…

Volgende Passages (komende 24 uur)

TLE

VersSource: CelesTrak SupGP

Epoch: Sep 15, 2026, 02:55 UTC

1 55357C 23013AC  26258.12201389  .00026404  00000+0  95637-3 0  2589
2 55357  43.0000 313.4886 0001460 258.0720 180.2327 15.27564478    15

Volg STARLINK-5651 in realtime met AllMySat

Download on the App Store